Regional Weather Roundup
Issued by NWS State College, PA

Home | Current Version | Previous Version | Graphics & Text | Print | Product List | Glossary Off
Versions: 1 2 3 4 5 6 7 8 9 10 11 12 13 14 15 16 17 18 19 20 21 22 23 24 25 26 27 28 29 30 31 32 33 34 35 36 37 38 39 40 41 42 43 44 45 46 47 48 49 50

000
ASUS41 KCTP 211103
RWRCTP
NATIONAL WEATHER SERVICE STATE COLLEGE PA
700 AM EDT THU SEP 21 2017

Note: "fair" indicates few or no clouds below 12,000 feet with no
significant weather and/or obstructions to visibility.

* = STATION THAT DOES NOT REPORT PRECIPITATION /E.G. RAIN...SNOW...ETC/
    THUNDER OR FOG.

PAZ002>004-007>009-013>016-020>023-029>032-211200-
WESTERN PENNSYLVANIA

CITY           SKY/WX    TMP DP  RH WIND       PRES   REMARKS
ERIE           CLEAR     63  59  87 S6        30.09S
MEADVILLE      CLEAR     62  60  93 CALM      30.12S
FRANKLIN*      CLOUDY    57  57 100 E3        30.14R VSB 3/4
NEW CASTLE     FOG       58  58 100 CALM      30.12S VSB 1/2
BEAVER COUNTY  CLEAR     64  63  94 CALM      30.12  FOG
BUTLER*        CLEAR     58  57  97 E3        30.12S
PITTSBURGH INT PTCLDY    63  62  97 CALM      30.11R
PITTSBURGH     FOG       62  60  93 SE5       30.11R VSB 1/4
INDIANA*       PTCLDY    57  57 100 CALM      30.15S
LATROBE        FOG       57  57 100 CALM      30.13R VSB 1/4
WASHINGTON CO* CLOUDY    57  55  94 CALM      30.12R VSB 1/2
$$

PAZ004>006-010>012-017>019-024>028-033>037-041-042-045-046-049>053-211200-
CENTRAL PENNSYLVANIA

CITY           SKY/WX    TMP DP  RH WIND       PRES   REMARKS
BRADFORD       MOCLDY    49  49 100 CALM      30.16R FOG
DUBOIS         CLEAR     59  56  89 CALM      30.14R FOG
CLEARFIELD     FOG       54  54 100 CALM      30.14R VSB 1/4
JOHNSTOWN      CLEAR     61  59  93 CALM      30.15R
ALTOONA        CLEAR     56  55  97 SW3       30.13R
STATE COLLEGE  PTCLDY    57  57 100 CALM      30.12R
WILLIAMSPORT   CLOUDY    63  62  97 NW3       30.09R FOG
SELINSGROVE    CLEAR     56  56 100 CALM      30.10R FOG
FT INDIANTOWN  PTCLDY    64  63  96 CALM      30.07R
CAPITAL CITY   PTCLDY    64  59  83 W3        30.07R
HARRISBURG     MOCLDY    66  63  90 N6        30.06R
YORK           CLOUDY    60  60 100 CALM      30.07R
$$

PAZ038>040-043-044-047-048-054-055-060>062-067>071-211200-
EASTERN PENNSYLVANIA

CITY           SKY/WX    TMP DP  RH WIND       PRES   REMARKS
SCRANTON       PTCLDY    62  61  96 SW3       30.10R
MOUNT POCONO   CLOUDY    60  60 100 NW5       30.10R
ALLENTOWN      MOCLDY    62  59  90 SW5       30.05R
QUAKERTOWN*    PTSUNNY   63  63 100 CALM      30.06R
READING        CLEAR     63  63 100 CALM      30.05R
LANCASTER      CLEAR     63  62  97 NW3       30.07R
COATESVILLE    MOSUNNY   66  63  88 N6        30.07R
POTTSTOWN      CLOUDY    65  63  93 CALM      30.07R
BLUE BELL      CLOUDY    64  63  94 CALM      30.05S
DOYLESTOWN     PTCLDY    67  62  84 N5        30.04R
WILLOW GROVE   NOT AVBL
NORTH PHILA    CLOUDY    70  63  78 N9        30.04R
PHILADELPHIA   MOCLDY    73  62  68 N9        30.03R
$$




USA.gov is the U.S. government's official web portal to all federal, state and local government web resources and services.